Change the Weather History Date:

Monday, October 24, 2011

  Actual Average Record
Temperature  
Mean Temperature 62 °F 51 °F  
Max Temperature 86 °F 65 °F 89 °F (2014)
Min Temperature 38 °F 37 °F 20 °F (1972)
Degree Days  
Heating Degree Days 2    
Growing Degree Days 12 (Base 50)    
Moisture  
Dew Point 37 °F    
Average Humidity 51    
Maximum Humidity 86    
Minimum Humidity 18    
Precipitation  
Precipitation 0.00 in 0.05 in 1.57 in (2000)
Month to date precipitation 2.24 1.27  
Year to date precipitation 19.05 21.03  
Sea Level Pressure  
Sea Level Pressure 29.94 in    
Wind  
Wind Speed 6 mph (SSW)    
Max Wind Speed 24 mph    
Max Gust Speed 36 mph    
Visibility 10 miles    
Events      
T = Trace of Precipitation, MM = Missing Value Source: NWS Daily Summary

Daily Weather History Graph

Daily Weather History Graph

Search for Another Location

Airport or City:

Trip Planner

Search our weather history database for the weather conditions in past years. The results will help you decide how hot, cold, wet, or windy it might be!

Date:

Astronomy

Oct. 24, 2011 Rise Set
Actual Time 7:58 AM CDT 6:48 PM CDT
Civil Twilight 7:30 AM CDT 7:15 PM CDT
Nautical Twilight 6:59 AM CDT 7:46 PM CDT
Astronomical Twilight 6:28 AM CDT 8:17 PM CDT
Moon 5:19 AM CDT (10/24) 5:13 PM CDT (10/24)
Length of Visible Light 11h 44m
Length of Day
10h 49m
Waning Crescent, 7% of the Moon is Illuminated
Oct 24
Waning Crescent
Oct 26
New
Nov 2
First Quarter
Nov 10
Full
Nov 18
Last Quarter

Hourly Weather History & Observations

Time (CDT) Temp. Windchill Dew Point Humidity Pressure Visibility Wind Dir Wind Speed Gust Speed Precip Events Conditions
12:53 AM 43.0 °F - 36.0 °F 76% 30.07 in 10.0 mi Calm Calm - N/A   Clear
1:53 AM 39.0 °F 36.8 °F 35.1 °F 86% 30.08 in 10.0 mi WNW 3.5 mph - N/A   Clear
2:53 AM 42.1 °F - 35.1 °F 76% 30.06 in 10.0 mi Calm Calm - N/A   Clear
3:53 AM 42.1 °F - 34.0 °F 73% 30.05 in 10.0 mi Calm Calm - N/A   Clear
4:53 AM 39.0 °F - 34.0 °F 82% 30.05 in 10.0 mi Calm Calm - N/A   Clear
5:53 AM 39.9 °F 35.8 °F 34.0 °F 79% 30.05 in 10.0 mi West 5.8 mph - N/A   Clear
6:53 AM 41.0 °F 39.0 °F 33.1 °F 73% 30.07 in 10.0 mi West 3.5 mph - N/A   Clear
7:53 AM 39.9 °F - 33.1 °F 77% 30.08 in 10.0 mi Calm Calm - N/A   Clear
8:53 AM 42.1 °F 40.2 °F 35.1 °F 76% 30.09 in 10.0 mi Variable 3.5 mph - N/A   Clear
10:53 AM 59.0 °F - 41.0 °F 51% 30.03 in 10.0 mi Calm Calm - N/A   Clear
11:53 AM 72.0 °F - 39.9 °F 31% 29.98 in 10.0 mi SSE 10.4 mph - N/A   Clear
12:53 PM 77.0 °F - 39.9 °F 26% 29.94 in 10.0 mi South 13.8 mph - N/A   Clear
2:53 PM 84.9 °F - 39.0 °F 20% 29.83 in 10.0 mi SSW 17.3 mph 33.4 mph N/A   Clear
3:53 PM 86.0 °F - 37.9 °F 18% 29.81 in 10.0 mi SSW 20.7 mph 32.2 mph N/A   Clear
4:53 PM 86.0 °F - 37.0 °F 18% 29.80 in 10.0 mi SSW 24.2 mph 35.7 mph N/A   Clear
5:53 PM 84.0 °F - 39.0 °F 20% 29.78 in 10.0 mi SSW 15.0 mph - N/A   Clear
7:53 PM 72.0 °F - 42.1 °F 34% 29.79 in 10.0 mi South 5.8 mph - N/A   Partly Cloudy
9:53 PM 71.1 °F - 39.9 °F 32% 29.75 in 10.0 mi South 15.0 mph 25.3 mph N/A   Clear
10:53 PM 70.0 °F - 39.9 °F 33% 29.73 in 10.0 mi South 17.3 mph 24.2 mph N/A   Clear
11:53 PM 69.1 °F - 42.1 °F 38% 29.69 in 10.0 mi South 16.1 mph 25.3 mph N/A   Clear